World > North America > United States > Oregon > Seneca  

Seneca, OR Hourly Weather Updates

Feedback E-mail the Weather

Quick Clicks

Seneca, OR Weather Maps

°F °C°F °C
Seneca Weather Map
UTC Time: 5/19/2024, 10:39
Your Time:

Seneca, OR Regional Weather

Expires:202405191100;;474258
ASUS46 KPQR 191010
RWROR 

OREGON REGIONAL WEATHER ROUNDUP
NATIONAL WEATHER SERVICE PORTLAND OR
300 AM PDT SUN MAY 19 2024

NOTE: "FAIR" INDICATES FEW OR NO CLOUDS BELOW 12,000 FEET WITH
NO SIGNIFICANT WEATHER AND/OR OBSTRUCTIONS TO VISIBILITY.


ORZ029>031-041-044-049-050-061>064-502-503-505>511-191100-
EASTERN OREGON

  
CITY           SKY/WX    TMP DP  RH WIND       PRES   REMARKS
MADRAS         CLEAR     36  32  87 N6        30.14S                  
REDMOND        CLEAR     34  27  75 NE3       30.11R                  
BEND           CLEAR     36  28  75 W3        30.10R                  
PRINEVILLE     PTCLDY    32  28  86 N5        30.12R                  
KLAMATH FALLS  CLEAR     34  29  82 W8        30.07S                  
LAKEVIEW       CLEAR    N/A N/A N/A NW9       30.06S                  
HERMISTON      CLEAR     47  37  68 SW14      30.07R                  
PENDLETON      PTCLDY    46  35  65 W24       30.05R                  
JOHN DAY       CLOUDY    40  28  61 W14       30.06R                  
MEACHAM        CLOUDY    37  31  78 CALM      30.02                   
LA GRANDE      PTCLDY    40  33  76 N6        30.05R                  
BAKER CITY     CLEAR     42  28  57 N16G29    30.01R                  
BURNS          CLEAR     34  25  69 W7        30.06R                  
ROME             N/A     44  24  45 N5        30.01R                  
ONTARIO        LGT RAIN  50  29  44 NW16      30.00R                  
$$


OTHER REGIONAL REPORTS
  
CITY           SKY/WX    TMP DP  RH WIND       PRES   REMARKS
SEATTLE        MOCLDY    45  42  89 S9        30.15S                  
SPOKANE        MOCLDY    44  35  70 W5        29.93R                  
VANCOUVER BC   MOCLDY    50  46  87 E6        30.12R                  
PRINCE GEORGE  CLEAR     32  30  93 S3        29.99R                  
DAWSON CREEK   CLEAR     41  37  87 W13       29.91R                  
WHITEHORSE     MOCLDY    41  30  65 S14G22    29.94R                  
BOISE          CLEAR     50  26  39 NW20      29.94R                  
REDDING        CLEAR     60  40  47 E3        29.92R                  
SAN FRANCISCO  PTCLDY    54  46  74 W8        30.01S                  

$$

  

SKY/WX - Weather  TMP - Temperature  DP - Dew Point  RH - Humidity
WIND - Wind Direction/Speed PRES - Barometric Pressure VSB - Visibility
WCI - Wind Chill Index E13G22 Wind - East Wind 13 mph/Gusts of 22 mph

Trending Headlines

Trending Entertainment Headlines

Seneca Radar Loop

Use the map search tool if you want to place a location marker on the radar map...

Seneca Quick Facts

National Two Day Weather Forecast


E-mail the Seneca Weather Forecast

Voice your opinion or tell us about page issues...